FREGAT DEB (49271 NORAD) Tracking and Keplerian Element Data

This shows tracking and keplerian element data for the satellite.

Feedback or suggestion? Click here.




ElementValue
Catalog49271
NameFREGAT DEB
Epoch Orbit2425
Epoch Day339.44113744
Epoch Year2021
RAAN34.7359
Inclination51.5301
Eccentricity0.0853245
Argument of Perigee12.1023
Mean Anonmoly349.8969
Mean Motion11.6843743
Decay Rate0.00063736
L11 49271U 11037PF 21339.44113744 .00063736 00000+0 45083+0 0 9994
L22 49271 51.5301 34.7359 0853245 12.1023 349.8969 11.68437430 24255

Live tracking and technical data element details for FREGAT DEB (NORAD 49271). FREGAT DEB can be tracked NOW for your location showing map with azimuth and elevation plus other details from your city location.

Track the satellite on the map from your city or location and see movement details for azimuth, elevation, latitude, longitude, range, height, and movement on the map or in text.







IsCatalogInMostPopularTable: catalog: 49271, numindb: 12
Update: records affected: 1



GetName: 49271 FREGAT DEB

Hit Count: updated at: Mon, 06 Dec 2021 15:29:25 GMT